CST,Max TemperatureF,Mean TemperatureF,Min TemperatureF,Max Dew PointF,MeanDew PointF,Min DewpointF,Max Humidity, Mean Humidity, Min Humidity, Max Sea Level PressureIn, Mean Sea Level PressureIn, Min Sea Level PressureIn, Max VisibilityMiles, Mean VisibilityMiles, Min VisibilityMiles, Max Wind SpeedMPH, Mean Wind SpeedMPH, Max Gust SpeedMPH,PrecipitationIn, CloudCover, Events, WindDirDegrees
2013-2-1,69,60,51,54,47,42,88,64,38,30.37,30.30,30.23,10,10,10,15,6,23,0.00,0,,148
2013-2-2,73,62,51,59,53,48,94,81,50,30.26,30.22,30.17,10,7,0,12,5,,0.00,0,Fog,131
2013-2-3,75,62,50,57,50,40,96,81,30,30.31,30.24,30.06,10,5,0,17,6,20,0.00,1,Fog,30
2013-2-4,75,67,59,65,61,55,94,83,64,30.02,29.92,29.83,10,7,0,16,8,21,0.00,3,Fog,144
2013-2-5,77,68,59,66,63,57,100,89,62,29.99,29.92,29.87,10,5,0,12,4,,0.00,4,Fog,172
2013-2-6,70,66,61,67,64,58,94,89,78,30.01,29.93,29.83,10,6,0,30,11,34,1.58,7,Fog-Rain-Thunderstorm,60
2013-2-7,72,64,55,64,61,54,94,88,76,30.00,29.95,29.90,10,6,0,7,4,72,0.00,6,Fog,39
2013-2-8,72,64,55,63,56,49,94,79,49,30.18,30.08,30.00,10,8,0,21,7,24,0.00,3,Fog,15
2013-2-9,72,64,55,67,62,52,94,84,71,30.09,29.95,29.85,10,8,5,24,13,30,0.00,7,,115
2013-2-10,72,68,64,70,63,48,94,81,56,29.96,29.85,29.80,10,7,2,20,13,25,0.00,8,Rain-Thunderstorm,134
2013-2-11,64,60,57,58,53,48,94,77,58,30.01,29.95,29.92,10,8,2,20,13,25,0.03,8,Rain,39
2013-2-12,66,62,59,61,58,55,100,89,73,30.00,29.86,29.81,10,6,1,16,9,18,0.00,6,Rain,8
2013-2-13,62,55,48,55,43,38,90,69,43,30.16,30.07,30.01,10,10,10,18,10,24,0.02,3,Rain,4
2013-2-14,66,52,39,46,40,27,86,63,23,30.17,30.10,30.05,10,10,10,12,6,,0.00,0,,98
2013-2-15,70,58,45,50,43,36,90,61,32,30.32,30.18,30.10,10,10,10,21,7,28,0.00,1,,50
2013-2-16,64,52,39,44,32,24,73,46,24,30.46,30.36,30.28,10,10,10,17,11,26,0.00,1,,322
2013-2-17,70,57,44,55,48,40,86,60,40,30.27,30.18,30.04,10,10,10,21,11,29,0.00,3,,168
2013-2-18,73,70,66,64,61,56,87,77,68,30.03,29.95,29.88,10,9,8,20,14,25,0.00,7,,182
2013-2-19,73,64,54,52,42,33,68,51,23,30.22,30.14,30.07,10,10,10,20,14,24,0.00,2,Rain,62
2013-2-20,71,65,59,66,60,49,88,77,67,30.07,29.91,29.75,10,10,8,24,16,32,0.00,7,Rain,109
2013-2-21,75,70,61,70,63,48,90,78,43,29.83,29.72,29.65,10,7,4,23,16,28,0.01,7,Rain,145
2013-2-22,73,65,57,51,47,41,78,57,39,29.95,29.89,29.83,10,10,10,18,11,24,0.00,4,,17
2013-2-23,69,60,48,52,45,39,93,67,45,30.01,29.94,29.89,10,8,0,17,11,25,0.00,2,Fog,20
2013-2-24,70,57,44,61,52,42,100,88,63,29.92,29.81,29.65,10,6,0,17,7,23,0.00,5,Fog,67
2013-2-25,75,64,52,67,49,16,96,63,10,29.85,29.64,29.55,10,6,0,34,14,50,0.00,5,Fog-Rain,261
2013-2-26,68,56,43,50,34,28,77,46,22,29.97,29.91,29.86,10,10,10,14,10,24,0.00,0,,282
2013-2-27,75,60,46,55,41,31,89,56,23,30.20,30.04,29.91,10,10,10,22,9,26,0.00,0,,349
2013-2-28,59,52,44,33,28,24,65,43,29,30.30,30.24,30.19,10,10,10,21,10,23,0.00,0,,342